Weather History for Indianapolis, IN

Change the Weather History Date:

Thursday, January 31, 2013

  Actual Average (KEYE) Record (KEYE)
Temperature  
Mean Temperature 18 °F 29 °F  
Max Temperature 26 °F 36 °F 58 °F (2012)
Min Temperature 9 °F 21 °F -11 °F (2004)
Degree Days  
Heating Degree Days 48 36  
Month to date heating degree days 1144  
Since 1 July heating degree days 3201  
Cooling Degree Days 0 0  
Month to date cooling degree days 0  
Year to date cooling degree days 0  
Moisture  
Dew Point 13 °F    
Average Humidity 71    
Maximum Humidity 82    
Minimum Humidity 63    
Precipitation  
Precipitation 0.00 in 0.04 in 1.30 in (2002)
Month to date precipitation 2.21  
Year to date precipitation 2.21  
Sea Level Pressure  
Sea Level Pressure 29.86 in    
Wind  
Wind Speed 21 mph (West)    
Max Wind Speed 32 mph    
Max Gust Speed 44 mph    
Visibility 8 miles    
Events Snow    
T = Trace of Precipitation, MM = Missing Value Source: NWS Daily Summary

Daily Weather History Graph

Daily Weather History Graph

Search for Another Location

Airport:

Trip Planner

Search our weather history database for the weather conditions in past years. The results will help you decide how hot, cold, wet, or windy it might be!

Date:

Astronomy

Jan. 31, 2013 Rise Set
Actual Time 7:54 AM EST 6:03 PM EST
Civil Twilight 7:25 AM EST 6:31 PM EST
Nautical Twilight 6:53 AM EST 7:04 PM EST
Astronomical Twilight 6:21 AM EST 7:36 PM EST
Moon 11:04 PM EST (1/31) 9:53 AM EST (1/31)
Length of Visible Light 11h 06m
Length of Day
10h 09m
Waning Gibbous, 80% of the Moon is Illuminated
Jan 31
Waning Gibbous
Feb 3
Last Quarter
Feb 10
New
Feb 17
First Quarter
Feb 25
Full

Hourly Weather History & Observations

Time (EST) Temp. Windchill Dew Point Humidity Pressure Visibility Wind Dir Wind Speed Gust Speed Precip Events Conditions
12:15 AM 26.6 °F 11.4 °F 20.8 °F 79% 29.63 in 7.0 mi West 25.3 mph 38.0 mph N/A Snow Light Snow
12:35 AM 26.1 °F 10.7 °F 19.9 °F 78% 29.64 in 10.0 mi West 25.3 mph 39.1 mph N/A   Overcast
12:55 AM 25.7 °F 11.9 °F 18.7 °F 75% 29.66 in 10.0 mi West 19.6 mph 41.4 mph N/A Snow Light Snow
1:15 AM 25.2 °F 8.6 °F 18.3 °F 75% 29.67 in 5.0 mi West 28.8 mph 38.0 mph N/A Snow Light Snow
1:35 AM 24.8 °F 10.7 °F 18.0 °F 75% 29.68 in 5.0 mi West 19.6 mph 32.2 mph N/A Snow Light Snow
1:55 AM 24.8 °F 10.7 °F 17.8 °F 75% 29.69 in 5.0 mi West 19.6 mph 38.0 mph N/A Snow Light Snow
2:15 AM 23.9 °F 6.9 °F 17.1 °F 75% 29.70 in 7.0 mi West 28.8 mph 33.4 mph N/A Snow Light Snow
2:35 AM 23.9 °F 9.1 °F 16.2 °F 72% 29.71 in 10.0 mi West 20.7 mph 28.8 mph N/A Snow Light Snow
2:55 AM 24.3 °F 9.6 °F 17.4 °F 75% 29.72 in 4.0 mi West 20.7 mph 27.6 mph N/A Snow Light Snow
3:15 AM 24.3 °F 9.6 °F 15.8 °F 70% 29.72 in 10.0 mi West 20.7 mph 34.5 mph N/A Snow Light Snow
3:35 AM 23.7 °F 5.9 °F 14.2 °F 67% 29.73 in 10.0 mi West 32.2 mph 38.0 mph N/A   Overcast
3:55 AM 23.9 °F 9.5 °F 14.7 °F 68% 29.73 in 10.0 mi West 19.6 mph 29.9 mph N/A Snow Light Snow
4:15 AM 23.5 °F 7.3 °F 14.2 °F 67% 29.74 in 10.0 mi West 25.3 mph 38.0 mph N/A   Overcast
4:35 AM 21.9 °F 4.2 °F 12.0 °F 66% 29.75 in 10.0 mi West 28.8 mph 41.4 mph N/A Snow Light Snow
4:55 AM 21.9 °F 5.5 °F 13.1 °F 69% 29.76 in 10.0 mi West 24.2 mph 34.5 mph N/A Snow Light Snow
5:15 AM 22.1 °F 5.7 °F 12.6 °F 67% 29.77 in 10.0 mi West 24.2 mph 33.4 mph N/A Snow Light Snow
5:35 AM 21.0 °F 6.2 °F 11.3 °F 66% 29.77 in 10.0 mi West 18.4 mph 31.1 mph N/A   Mostly Cloudy
5:55 AM 21.2 °F 6.4 °F 12.2 °F 68% 29.78 in 10.0 mi West 18.4 mph 28.8 mph N/A   Overcast
6:15 AM 21.2 °F 2.4 °F 13.6 °F 73% 29.79 in 7.0 mi West 32.2 mph 43.7 mph N/A Snow Light Snow
6:35 AM 20.7 °F 3.8 °F 11.5 °F 68% 29.80 in 10.0 mi West 24.2 mph 34.5 mph N/A   Overcast
6:55 AM 20.7 °F 5.7 °F 12.4 °F 70% 29.81 in 10.0 mi West 18.4 mph 27.6 mph N/A Snow Light Snow
7:15 AM 20.7 °F 5.3 °F 12.0 °F 69% 29.81 in 10.0 mi West 19.6 mph 27.6 mph N/A   Overcast
7:35 AM 20.8 °F 6.8 °F 12.9 °F 71% 29.82 in 10.0 mi West 16.1 mph 24.2 mph N/A   Overcast
7:55 AM 21.2 °F 8.3 °F 14.0 °F 74% 29.82 in 7.0 mi West 13.8 mph 19.6 mph N/A Snow Light Snow
8:15 AM 21.9 °F 8.2 °F 14.2 °F 72% 29.82 in 7.0 mi West 16.1 mph 24.2 mph N/A Snow Light Snow
8:35 AM 22.1 °F 9.5 °F 15.3 °F 75% 29.83 in 7.0 mi WSW 13.8 mph - N/A Snow Light Snow
8:55 AM 21.9 °F 7.8 °F 16.5 °F 80% 29.84 in 1.2 mi WSW 17.3 mph 24.2 mph N/A Snow Light Snow
9:15 AM 22.5 °F 11.1 °F 16.7 °F 79% 29.84 in 2.5 mi WSW 11.5 mph - N/A Snow Light Snow
9:35 AM 22.5 °F 10.5 °F 17.6 °F 82% 29.85 in 1.2 mi WSW 12.7 mph - N/A Snow Light Snow
9:55 AM 23.0 °F 11.7 °F 18.0 °F 81% 29.86 in 3.0 mi WSW 11.5 mph 17.3 mph N/A Snow Light Snow
10:15 AM 23.9 °F 11.2 °F 18.3 °F 79% 29.86 in 5.0 mi WSW 15.0 mph 20.7 mph N/A Snow Light Snow
10:35 AM 25.0 °F 13.1 °F 18.1 °F 75% 29.86 in 10.0 mi WSW 13.8 mph 27.6 mph N/A   Overcast
10:55 AM 24.8 °F 10.3 °F 17.2 °F 73% 29.87 in 0.5 mi West 20.7 mph 36.8 mph N/A Snow Light Snow
11:15 AM 24.4 °F 13.5 °F 19.8 °F 82% 29.88 in 0.8 mi WNW 11.5 mph 24.2 mph N/A Snow Light Snow
11:35 AM 24.1 °F 11.0 °F 18.1 °F 78% 29.88 in 0.5 mi West 16.1 mph 24.2 mph N/A Snow Light Snow
11:55 AM 24.4 °F 12.4 °F 18.5 °F 78% 29.88 in 1.0 mi West 13.8 mph 24.2 mph N/A Snow Light Snow
12:15 PM 25.2 °F 12.0 °F 18.3 °F 75% 29.88 in 7.0 mi West 17.3 mph 24.2 mph N/A Snow Light Snow
12:35 PM 24.4 °F 11.5 °F 18.1 °F 77% 29.89 in 0.8 mi West 16.1 mph 23.0 mph N/A Snow Light Snow
12:55 PM 24.4 °F 11.9 °F 17.8 °F 76% 29.89 in 1.5 mi West 15.0 mph 23.0 mph N/A Snow Light Snow
1:15 PM 25.7 °F 15.1 °F 16.7 °F 69% 29.89 in 10.0 mi West 11.5 mph 26.5 mph N/A Snow Light Snow
1:35 PM 25.5 °F 13.3 °F 16.5 °F 69% 29.89 in 5.0 mi West 15.0 mph 28.8 mph N/A Snow Light Snow
1:55 PM 26.2 °F 11.5 °F 15.4 °F 64% 29.89 in 10.0 mi West 23.0 mph 32.2 mph N/A   Mostly Cloudy
2:15 PM 25.9 °F 11.7 °F 16.3 °F 67% 29.88 in 7.0 mi West 20.7 mph 28.8 mph N/A Snow Light Snow
2:35 PM 25.7 °F 11.2 °F 15.6 °F 66% 29.88 in 10.0 mi West 21.9 mph 27.6 mph N/A Snow Light Snow
2:55 PM 25.7 °F 14.6 °F 15.8 °F 66% 29.88 in 10.0 mi West 12.7 mph 27.6 mph N/A   Mostly Cloudy
3:15 PM 26.2 °F 12.6 °F 15.6 °F 64% 29.88 in 10.0 mi West 19.6 mph 28.8 mph N/A Snow Light Snow
3:35 PM 26.2 °F 11.5 °F 15.6 °F 64% 29.88 in 10.0 mi West 23.0 mph 31.1 mph N/A   Overcast
3:55 PM 25.3 °F 11.4 °F 15.6 °F 67% 29.88 in 10.0 mi West 19.6 mph 25.3 mph N/A Snow Light Snow
4:15 PM 25.0 °F 15.5 °F 15.3 °F 67% 29.88 in 10.0 mi WNW 9.2 mph 21.9 mph N/A Snow Light Snow
4:35 PM 24.3 °F 12.2 °F 15.6 °F 70% 29.89 in 10.0 mi West 13.8 mph 18.4 mph N/A Snow Light Snow
4:55 PM 23.9 °F 13.5 °F 16.3 °F 73% 29.89 in 7.0 mi WNW 10.4 mph 16.1 mph N/A Snow Light Snow
5:15 PM 23.4 °F 11.6 °F 15.8 °F 73% 29.90 in 5.0 mi WNW 12.7 mph - N/A Snow Light Snow
5:35 PM 22.6 °F 9.2 °F 15.1 °F 73% 29.91 in 5.0 mi WNW 16.1 mph 24.2 mph N/A Snow Light Snow
5:55 PM 22.1 °F 10.6 °F 14.4 °F 72% 29.91 in 10.0 mi WNW 11.5 mph - N/A Snow Light Snow
6:15 PM 21.7 °F 9.0 °F 13.5 °F 70% 29.93 in 10.0 mi WNW 13.8 mph 26.5 mph N/A Snow Light Snow
6:35 PM 20.7 °F 5.7 °F 10.4 °F 65% 29.94 in 10.0 mi WNW 18.4 mph 27.6 mph N/A   Overcast
6:55 PM 19.6 °F 3.5 °F 10.8 °F 69% 29.95 in 10.0 mi WNW 20.7 mph 27.6 mph N/A Snow Light Snow
7:15 PM 18.9 °F 3.3 °F 10.9 °F 71% 29.96 in 10.0 mi NW 18.4 mph 23.0 mph N/A   Overcast
7:35 PM 17.6 °F 3.2 °F 9.9 °F 72% 29.97 in 7.0 mi WNW 15.0 mph 24.2 mph N/A Snow Light Snow
8:15 PM 15.8 °F -1.9 °F 7.5 °F 70% 29.98 in 10.0 mi NW 21.9 mph 28.8 mph N/A   Overcast
8:35 PM 14.7 °F -2.5 °F 5.5 °F 67% 30.00 in 10.0 mi WNW 19.6 mph 27.6 mph N/A   Overcast
8:55 PM 14.0 °F -3.0 °F 4.5 °F 66% 30.00 in 10.0 mi WNW 18.4 mph 25.3 mph N/A   Overcast
9:15 PM 14.5 °F -1.8 °F 5.4 °F 67% 30.01 in 10.0 mi WNW 17.3 mph 31.1 mph N/A   Overcast
9:35 PM 13.6 °F -3.0 °F 3.9 °F 65% 30.02 in 7.0 mi WNW 17.3 mph 27.6 mph N/A   Overcast
9:55 PM 13.1 °F -5.5 °F 4.8 °F 70% 30.03 in 7.0 mi WNW 21.9 mph 28.8 mph N/A   Overcast
10:15 PM 12.7 °F -5.1 °F 2.3 °F 63% 30.04 in 10.0 mi WNW 19.6 mph 31.1 mph N/A   Overcast
10:35 PM 11.1 °F -9.7 °F 0.9 °F 63% 30.06 in 10.0 mi WNW 26.5 mph 32.2 mph N/A   Mostly Cloudy
10:55 PM 11.1 °F -7.2 °F 2.1 °F 67% 30.07 in 7.0 mi WNW 19.6 mph 28.8 mph N/A Snow Light Snow
11:15 PM 10.0 °F -9.1 °F 0.3 °F 65% 30.08 in 10.0 mi NW 20.7 mph 31.1 mph N/A   Mostly Cloudy
11:35 PM 9.5 °F -11.1 °F 1.9 °F 71% 30.09 in 2.5 mi WNW 24.2 mph 32.2 mph N/A Snow Light Snow
11:55 PM 9.0 °F -9.0 °F -0.6 °F 65% 30.11 in 10.0 mi WNW 17.3 mph 26.5 mph N/A   Scattered Clouds